SCP
1 1 1 1 1 1 1 1 1 1 1 1 1 1 1 1 1 0 0 0 0 0 0 0 0 0 0 0 0 0 0 0
0 0 0 1 1 1 1 1 1 1 1 1 1 1 1 1 1 1 1 1 1 1 0 0 0 0 0 0 0 0 0 0
1 0 0 1 1 1 1 1 1 1 1 1 1 1 1 1 1 1 1 1 1 1 1 0 0 0 0 0 0 0 0 0
1 1 1 0 1 1 1 1 1 2 2 2 2 2 1 1 1 1 1 1 1 1 1 0 0 0 0 0 0 0 0 0
2 1 1 -0 1 1 1 2 1 1 1 2 2 2 2 1 2 1 1 1 1 1 1 1 1 0 0 0 0 0 0 0
2 2 2 1 1 2 2 2 2 2 1 2 2 2 1 2 2 2 1 2 1 2 1 1 1 1 0 0 0 0 0 0
0 2 2 2 2 2 2 2 2 2 2 2 2 2 2 2 2 2 2 2 2 2 2 2 1 1 1 0 1 0 0 0
0 0 0 0 0 1 2 2 2 2 3 2 2 3 2 2 2 2 2 2 2 2 2 2 2 1 1 1 1 1 0 0
0 0 0 0 0 0 0 0 2 1 2 2 2 3 2 1 2 2 3 3 2 2 2 2 2 1 1 1 1 1 1 0
0 0 0 0 0 0 0 0 0 0 1 2 1 2 3 3 3 2 2 3 2 3 2 2 2 2 2 1 1 1 1 1
0 0 0 0 0 0 0 0 0 0 0 1 1 2 2 3 2 3 2 3 3 3 3 3 3 2 2 2 1 1 1 1
0 0 0 0 0 0 0 0 0 0 0 0 1 2 2 2 2 2 2 3 3 4 4 4 4 3 3 2 1 1 1 1
0 0 0 0 0 0 0 0 0 0 0 0 0 1 2 2 2 2 3 3 3 4 5 5 4 3 2 1 0 1 1 1
0 0 0 0 0 0 0 0 0 0 0 0 0 0 0 2 3 3 3 3 3 3 5 6 4 4 3 1 1 0 0 1
0 0 0 0 0 0 0 0 0 -0 0 0 0 0 0 0 2 3 4 4 4 4 4 3 5 3 1 1 0 0 0 0
0 0 0 0 0 0 0 0 0 0 0 0 0 0 0 0 0 1 4 4 4 2 0 0 0 1 1 1 0 0 0 0
0 0 0 0 0 0 0 0 0 0 0 0 0 0 0 0 0 0 2 4 3 0 0 0 1 3 0 1 1 0 0 0
0 0 0 0 0 0 0 0 0 0 0 0 0 0 0 0 0 0 2 2 3 2 1 1 3 2 2 2 1 1 1 1
-0 -0 -0 0 0 0 0 0 0 0 0 0 0 0 0 0 0 0 1 1 1 1 2 3 3 3 3 2 1 1 0 1
-0 -0 -0 -0 0 0 0 0 0 0 0 0 0 0 0 0 0 0 0 1 2 2 1 1 1 2 2 1 1 1 1 1
Wind_Speed_500mb
21 23 24 32 49 48 47 44 39 36 35 36 36 37 38 35 32 29 29 28 27 26 23 21 23 24 23 20 17 16 16 15
23 27 30 32 43 53 52 49 43 40 40 39 38 38 39 38 36 34 34 33 32 30 27 26 27 27 27 23 22 22 21 17
28 22 28 31 38 53 55 53 49 45 44 42 42 43 42 42 42 40 39 39 38 36 33 31 30 31 30 29 29 27 26 22
18 16 21 26 31 51 57 55 53 51 49 48 47 45 45 45 43 42 43 44 42 41 39 36 37 37 35 33 33 31 30 25
15 13 12 15 25 35 48 55 55 54 53 53 50 48 48 48 47 48 48 48 50 50 48 47 44 41 40 39 36 35 33 30
9 7 10 14 11 37 41 47 50 56 58 55 54 53 52 53 52 50 51 53 56 55 54 52 49 45 43 43 40 36 33 36
22 15 14 16 14 35 39 32 39 46 54 58 59 57 57 57 55 51 49 49 49 53 59 57 53 49 47 45 44 40 32 34
15 12 9 12 23 24 29 41 47 45 45 47 54 55 57 56 60 59 54 50 53 46 52 58 56 45 40 41 43 43 39 37
10 6 16 17 17 29 34 31 35 45 52 55 56 56 53 56 57 61 62 55 54 54 48 49 52 47 45 43 45 51 48 43
5 23 21 27 27 27 29 35 40 43 42 53 57 60 63 61 64 66 67 66 64 59 57 56 54 53 55 54 50 49 49 47
7 18 29 31 32 32 40 42 40 42 47 48 53 57 66 67 75 73 73 75 79 76 73 66 65 70 63 57 50 50 44 46
14 21 28 32 33 36 38 41 51 62 56 50 50 61 69 69 72 78 85 88 79 82 85 80 74 76 64 56 47 40 41 48
15 20 22 24 24 25 32 42 48 51 57 72 68 57 60 77 79 83 79 104 101 87 89 87 78 76 65 52 51 50 47 46
15 20 24 25 28 30 33 39 45 51 60 63 63 67 71 69 85 90 86 81 97 102 97 86 80 79 70 59 43 47 51 56
25 29 32 32 34 38 40 42 44 50 51 56 73 76 74 70 73 92 96 92 90 92 91 81 78 58 63 52 22 27 47 62
29 32 32 34 37 40 43 48 54 55 61 59 61 72 91 84 75 77 99 97 89 88 91 80 70 82 57 70 53 27 28 21
32 33 33 34 36 39 43 48 53 57 64 71 67 68 79 86 75 65 90 101 96 100 94 95 77 93 84 85 86 41 31 30
38 42 42 42 40 40 43 47 51 58 61 69 74 70 70 84 87 64 77 96 97 103 99 89 96 105 91 105 96 94 75 49
45 48 47 49 46 45 45 47 50 56 56 61 70 72 69 69 81 75 68 83 88 87 94 93 95 91 97 98 89 75 75 77
47 53 51 54 50 46 45 46 49 54 53 54 60 63 66 70 68 82 74 68 74 73 92 95 97 94 93 78 72 66 63 70
Wind_Direction_500mb
261 247 239 224 219 218 216 212 210 209 208 208 208 208 211 215 218 220 222 222 226 231 235 241 246 250 250 240 235 228 213 209
305 262 246 237 224 217 216 214 211 210 209 212 212 212 214 217 221 222 225 225 226 232 238 243 247 250 250 243 237 229 225 221
294 305 250 242 229 219 217 216 213 212 212 213 215 215 217 219 221 222 225 226 227 229 235 242 246 249 248 244 236 233 233 223
263 294 296 251 241 217 215 219 219 217 216 217 218 219 221 223 225 226 226 228 229 232 235 239 242 245 247 247 244 241 239 231
266 263 297 278 228 223 221 222 223 223 222 222 223 224 224 225 225 227 227 227 229 231 233 237 241 244 247 249 250 248 245 239
203 226 260 270 301 218 223 229 229 228 229 228 227 227 229 229 230 228 230 229 232 234 237 239 243 245 248 251 250 250 247 240
163 182 212 213 228 220 226 227 230 234 234 236 236 233 232 234 234 234 233 231 232 237 238 239 243 245 246 252 256 253 250 241
133 167 171 202 214 230 239 239 230 239 237 233 236 236 234 233 233 231 234 237 235 238 241 238 235 239 242 243 246 254 253 251
203 229 229 230 217 222 230 227 243 245 238 237 239 237 232 229 230 230 234 235 238 240 244 236 236 230 238 242 243 246 250 249
193 252 262 260 248 236 229 232 233 234 242 251 240 244 237 236 231 228 228 235 235 237 237 228 228 232 234 235 239 243 247 245
260 271 276 262 258 249 243 239 239 238 240 241 252 249 243 243 238 232 222 229 234 234 237 235 231 228 229 229 237 242 241 242
273 275 274 274 270 260 256 250 241 239 237 239 244 254 257 251 244 242 236 228 228 228 231 233 231 230 229 226 235 238 242 246
284 288 293 301 294 286 271 266 258 250 241 241 240 242 257 256 255 249 248 235 228 228 225 230 228 227 227 224 223 226 228 240
317 306 310 314 306 302 296 288 280 269 257 249 245 241 243 249 258 256 251 247 237 236 233 230 225 224 217 218 219 220 227 238
322 317 318 315 314 309 302 295 290 289 282 267 248 242 240 247 255 252 256 251 244 242 240 230 204 219 229 213 210 220 222 232
321 327 329 327 324 320 318 316 310 304 300 289 272 249 246 247 250 257 247 251 248 245 243 245 235 233 241 227 233 229 196 199
334 341 345 341 338 332 324 321 316 309 306 299 287 273 255 252 252 256 249 246 248 251 245 243 235 209 215 248 228 221 217 203
345 348 350 345 339 332 329 323 318 310 308 304 301 293 271 257 253 259 250 246 247 251 250 243 220 218 229 219 225 219 224 219
352 352 352 346 340 335 328 328 324 316 312 309 304 302 293 276 261 249 254 248 249 246 249 241 223 226 227 229 226 225 229 230
352 351 352 349 345 341 331 328 328 321 315 310 301 302 298 293 270 244 253 253 253 241 246 238 235 232 233 237 235 226 237 237
Wind_Speed_850mb
21 23 24 32 49 48 47 44 39 36 35 36 36 37 38 35 32 29 29 28 27 26 23 21 23 24 23 20 17 16 16 15
23 27 30 32 43 53 52 49 43 40 40 39 38 38 39 38 36 34 34 33 32 30 27 26 27 27 27 23 22 22 21 17
28 22 28 31 38 53 55 53 49 45 44 42 42 43 42 42 42 40 39 39 38 36 33 31 30 31 30 29 29 27 26 22
18 16 21 26 31 51 57 55 53 51 49 48 47 45 45 45 43 42 43 44 42 41 39 36 37 37 35 33 33 31 30 25
15 13 12 15 25 35 48 55 55 54 53 53 50 48 48 48 47 48 48 48 50 50 48 47 44 41 40 39 36 35 33 30
9 7 10 14 11 37 41 47 50 56 58 55 54 53 52 53 52 50 51 53 56 55 54 52 49 45 43 43 40 36 33 36
22 15 14 16 14 35 39 32 39 46 54 58 59 57 57 57 55 51 49 49 49 53 59 57 53 49 47 45 44 40 32 34
15 12 9 12 23 24 29 41 47 45 45 47 54 55 57 56 60 59 54 50 53 46 52 58 56 45 40 41 43 43 39 37
10 6 16 17 17 29 34 31 35 45 52 55 56 56 53 56 57 61 62 55 54 54 48 49 52 47 45 43 45 51 48 43
5 23 21 27 27 27 29 35 40 43 42 53 57 60 63 61 64 66 67 66 64 59 57 56 54 53 55 54 50 49 49 47
7 18 29 31 32 32 40 42 40 42 47 48 53 57 66 67 75 73 73 75 79 76 73 66 65 70 63 57 50 50 44 46
14 21 28 32 33 36 38 41 51 62 56 50 50 61 69 69 72 78 85 88 79 82 85 80 74 76 64 56 47 40 41 48
15 20 22 24 24 25 32 42 48 51 57 72 68 57 60 77 79 83 79 104 101 87 89 87 78 76 65 52 51 50 47 46
15 20 24 25 28 30 33 39 45 51 60 63 63 67 71 69 85 90 86 81 97 102 97 86 80 79 70 59 43 47 51 56
25 29 32 32 34 38 40 42 44 50 51 56 73 76 74 70 73 92 96 92 90 92 91 81 78 58 63 52 22 27 47 62
29 32 32 34 37 40 43 48 54 55 61 59 61 72 91 84 75 77 99 97 89 88 91 80 70 82 57 70 53 27 28 21
32 33 33 34 36 39 43 48 53 57 64 71 67 68 79 86 75 65 90 101 96 100 94 95 77 93 84 85 86 41 31 30
38 42 42 42 40 40 43 47 51 58 61 69 74 70 70 84 87 64 77 96 97 103 99 89 96 105 91 105 96 94 75 49
45 48 47 49 46 45 45 47 50 56 56 61 70 72 69 69 81 75 68 83 88 87 94 93 95 91 97 98 89 75 75 77
47 53 51 54 50 46 45 46 49 54 53 54 60 63 66 70 68 82 74 68 74 73 92 95 97 94 93 78 72 66 63 70
Wind_Direction_850mb
261 247 239 224 219 218 216 212 210 209 208 208 208 208 211 215 218 220 222 222 226 231 235 241 246 250 250 240 235 228 213 209
305 262 246 237 224 217 216 214 211 210 209 212 212 212 214 217 221 222 225 225 226 232 238 243 247 250 250 243 237 229 225 221
294 305 250 242 229 219 217 216 213 212 212 213 215 215 217 219 221 222 225 226 227 229 235 242 246 249 248 244 236 233 233 223
263 294 296 251 241 217 215 219 219 217 216 217 218 219 221 223 225 226 226 228 229 232 235 239 242 245 247 247 244 241 239 231
266 263 297 278 228 223 221 222 223 223 222 222 223 224 224 225 225 227 227 227 229 231 233 237 241 244 247 249 250 248 245 239
203 226 260 270 301 218 223 229 229 228 229 228 227 227 229 229 230 228 230 229 232 234 237 239 243 245 248 251 250 250 247 240
163 182 212 213 228 220 226 227 230 234 234 236 236 233 232 234 234 234 233 231 232 237 238 239 243 245 246 252 256 253 250 241
133 167 171 202 214 230 239 239 230 239 237 233 236 236 234 233 233 231 234 237 235 238 241 238 235 239 242 243 246 254 253 251
203 229 229 230 217 222 230 227 243 245 238 237 239 237 232 229 230 230 234 235 238 240 244 236 236 230 238 242 243 246 250 249
193 252 262 260 248 236 229 232 233 234 242 251 240 244 237 236 231 228 228 235 235 237 237 228 228 232 234 235 239 243 247 245
260 271 276 262 258 249 243 239 239 238 240 241 252 249 243 243 238 232 222 229 234 234 237 235 231 228 229 229 237 242 241 242
273 275 274 274 270 260 256 250 241 239 237 239 244 254 257 251 244 242 236 228 228 228 231 233 231 230 229 226 235 238 242 246
284 288 293 301 294 286 271 266 258 250 241 241 240 242 257 256 255 249 248 235 228 228 225 230 228 227 227 224 223 226 228 240
317 306 310 314 306 302 296 288 280 269 257 249 245 241 243 249 258 256 251 247 237 236 233 230 225 224 217 218 219 220 227 238
322 317 318 315 314 309 302 295 290 289 282 267 248 242 240 247 255 252 256 251 244 242 240 230 204 219 229 213 210 220 222 232
321 327 329 327 324 320 318 316 310 304 300 289 272 249 246 247 250 257 247 251 248 245 243 245 235 233 241 227 233 229 196 199
334 341 345 341 338 332 324 321 316 309 306 299 287 273 255 252 252 256 249 246 248 251 245 243 235 209 215 248 228 221 217 203
345 348 350 345 339 332 329 323 318 310 308 304 301 293 271 257 253 259 250 246 247 251 250 243 220 218 229 219 225 219 224 219
352 352 352 346 340 335 328 328 324 316 312 309 304 302 293 276 261 249 254 248 249 246 249 241 223 226 227 229 226 225 229 230
352 351 352 349 345 341 331 328 328 321 315 310 301 302 298 293 270 244 253 253 253 241 246 238 235 232 233 237 235 226 237 237